Regional Weather Roundup
Issued by NWS Little Rock, AR

Home | Current Version | Previous Version | Graphics & Text | Print | Product List | Glossary On
Versions: 1 2 3 4 5 6 7 8 9 10 11 12 13 14 15 16 17 18 19 20 21 22 23 24 25 26 27 28 29 30 31 32 33 34 35 36 37 38 39 40 41 42 43 44 45 46 47 48 49 50
000
ASUS44 KLZK 272205
RWRLZK

WEATHER ROUNDUP FOR ARKANSAS
NATIONAL WEATHER SERVICE LITTLE ROCK AR
500 PM CDT WED AUG 27 2014

NOTE: "FAIR" INDICATES FEW OR NO CLOUDS BELOW 12,000 FEET WITH NO
SIGNIFICANT WEATHER AND/OR OBSTRUCTIONS TO VISIBILITY.

ARZ001-003-010-029-272300-
NORTHWEST ARKANSAS

CITY           SKY/WX    TMP DP  RH WIND       PRES   REMARKS
FAYETTEVILLE   MOSUNNY   93  61  34 E10       30.03F HX  93
FORT SMITH     MOSUNNY   94  69  44 SE7       29.99F HX  99
HARRISON       MOSUNNY   93  66  40 S8        30.04F HX  96
BENTONVILLE    MOSUNNY   95  64  36 SE10      30.05F HX  97
ROGERS         MOSUNNY   94  62  34 E8        30.05F HX  94
SILOAM SPGS      N/A     93  66  40 E6        30.04F HX  96
HIGHFILL       MOSUNNY   94  63  35 E10       30.03F HX  95
SPRINGDALE     MOSUNNY   91  66  43 SE9       30.06F HX  94
$$

ARZ004-005-016-272300-
NORTH CENTRAL ARKANSAS

CITY           SKY/WX    TMP DP  RH WIND       PRES   REMARKS
BATESVILLE     SUNNY     93  66  40 SE12      30.02F HX  96
FLIPPIN        SUNNY     95  64  36 S5        30.02F HX  97
MTN HOME       PTSUNNY   93  66  40 E7        30.01F HX  96
$$

ARZ040-041-272300-
WEST CENTRAL ARKANSAS

CITY           SKY/WX    TMP DP  RH WIND       PRES   REMARKS
MENA           MOSUNNY   91  68  46 CALM      30.04F HX  95
MOUNT IDA      MOSUNNY   87  70  56 VRB3      30.02S HX  92
$$

ARZ009-017-025-026-028-272300-
NORTHEAST ARKANSAS

CITY           SKY/WX    TMP DP  RH WIND       PRES   REMARKS
CORNING        LGT RAIN  93  73  52 SE7       30.02F HX 102
JONESBORO      MOSUNNY   92  69  47 E9        30.01F HX  97
NEWPORT        SUNNY     92  72  51 SE10      30.02F HX  99
WALNUT RIDGE   SUNNY     93  63  36 SE7       30.00F HX  94
BLYTHEVILLE    MOSUNNY   90  73  57 SE3       30.03F HX  98
$$

ARZ022-023-033-042-044-272300-
CENTRAL ARKANSAS

CITY           SKY/WX    TMP DP  RH WIND       PRES   REMARKS
LITTLE ROCK    MOSUNNY   90  66  45 E6        30.02F HX  92
JACKSONVILLE   SUNNY     93  69  46 E6        30.02F HX  98
SEARCY         SUNNY     93  68  44 MISG      30.02F HX  97
HOT SPRINGS    SUNNY     91  64  40 E10       30.03S HX  92
RUSSELLVILLE   MOSUNNY   92  69  47 VRB3      30.01S HX  97
CLINTON        FAIR      93  72  49 S8        30.01F HAZE    HX 100
$$

ARZ036-272300-
EAST ARKANSAS

CITY           SKY/WX    TMP DP  RH WIND       PRES   REMARKS
WEST MEMPHIS   PTSUNNY   91  69  48 SE8       30.01F HX  96
$$

ARZ050-053-066-070-073-272300-
SOUTHWEST ARKANSAS

CITY           SKY/WX    TMP DP  RH WIND       PRES   REMARKS
ARKADELPHIA    FAIR      92  74  55 VRB3      30.01F HX 101
CAMDEN         PTSUNNY   91  64  40 S3        30.00F HX  93
TEXARKANA      CLOUDY    88  67  49 E6        30.01F HX  91
EL DORADO      MOSUNNY   89  65  44 E3        30.02F HX  91
DE QUEEN       MOSUNNY   89  71  55 E6        29.99F HX  95
$$

ARZ056-057-069-272300-
SOUTHEAST ARKANSAS

CITY           SKY/WX    TMP DP  RH WIND       PRES   REMARKS
PINE BLUFF     SUNNY     90  70  51 E9        30.02F HX  95
STUTTGART      SUNNY     90  66  45 E9        30.04S HX  92
MONTICELLO     SUNNY     92  62  36 SE6       30.01F HX  92

$$





USA.gov is the U.S. government's official web portal to all federal, state and local government web resources and services.